Location: Fenile
(46.0500°N, 9.5500°E)
Time: 14:32:55
(UTC+00:00)

Meteor 2-4 Rocket - Pass Details

Date: 03 March 2021
Orbit: 799 x 908 km, 81.2° (Epoch: 11 April)

Event Time Altitude Azimuth Distance (km) Brightness Sun altitude
Rises 18:46:02 0° 347° (NNW) 3,489 7.2 -17.2°
Reaches altitude 10° 18:48:28 10° 346° (NNW) 2,560 6.5 -17.6°
Maximum altitude 18:54:18 77° 262° (W) 928 4.0 -18.6°
Drops below altitude 10° 19:00:12 10° 178° (S) 2,582 6.1 -19.6°
Sets 19:02:40 0° 176° (S) 3,522 6.8 -20.1°
